Location: Glens Falls
(43.3090°N, 73.6440°W)
Time: 12:53:42
(UTC-05:00)

Daily predictions for brighter satellites

Satellite Brightness Start Highest point End
(mag) Time Altitude Azimuth Time Altitude Azimuth Time Altitude Azimuth
FALCON 9 R/B 4.0 17:48:51 10° WSW 17:54:19 50° S 18:13:20 10° ESE
Cosmos 1048 Rocket 4.5 17:58:31 10° S 18:03:28 41° ESE 18:08:24 10° NE
Sich 1 Rocket 4.3 18:02:07 10° SSE 18:06:07 32° E 18:10:06 10° NNE
Cosmos 44 3.8 18:01:31 10° NW 18:06:33 72° WSW 18:11:48 10° SSE
ALOS 2.3 18:02:31 10° SSE 18:07:11 89° ENE 18:11:54 10° NNW
Cosmos 1464 Rocket 4.1 18:01:20 10° N 18:07:21 53° ENE 18:13:20 10° SSE
CZ-2C R/B 3.9 18:04:02 10° N 18:08:29 75° WNW 18:12:53 10° SSW
Cosmos 2227 Rocket 3.2 18:08:00 10° SW 18:13:28 50° WNW 18:18:58 10° NNE
Cosmos 2237 Rocket 4.0 18:08:26 10° NW 18:13:34 37° WSW 18:18:40 10° S
Cosmos 1420 Rocket 4.1 18:11:58 10° NNW 18:17:17 89° ENE 18:22:36 10° SSE
Okean 2 Rocket 4.3 18:14:21 10° SE 18:17:35 20° E 18:20:49 10° NE
SPOT 3 Rocket 3.5 18:12:37 10° SSE 18:17:47 72° ENE 18:23:00 10° N
Cosmos 921 Rocket 3.3 18:13:28 10° N 18:17:53 50° ENE 18:22:13 10° SE
Cosmos 1674 Rocket 3.8 18:15:05 10° NNW 18:19:26 76° W 18:23:44 10° S
SL-16 R/B 2.4 18:14:20 10° NNW 18:20:03 81° WSW 18:25:41 10° SSE
Cosmos 1072 Rocket 4.5 18:13:59 10° N 18:20:13 74° E 18:26:31 10° SSE
ERS-2 2.6 18:21:14 10° SE 18:24:40 39° ENE 18:28:08 10° N
Cosmos 2297 Rocket 3.4 18:21:29 10° SW 18:26:53 45° WNW 18:32:20 10° NNE
COSMOS 2455 3.8 18:23:47 10° SSE 18:28:30 25° ESE 18:33:15 10° NE
SeaSat 1 3.5 18:24:50 10° ESE 18:28:52 26° NE 18:32:57 10° N
USA 215 4.2 18:24:33 10° ENE 18:30:03 28° SE 18:35:29 10° S
Cosmos 1908 Rocket 3.5 18:26:21 10° S 18:30:49 80° E 18:35:17 10° N
MTI 4.2 18:27:41 10° N 18:30:52 65° WNW 18:34:01 10° SSW
YAOGAN 1 4.5 18:28:49 10° SSW 18:32:47 35° W 18:36:45 10° NNW
H-2A R/B 2.7 18:29:02 10° SSE 18:32:56 75° ENE 18:36:50 10° N
Aureole 3 4.4 18:29:42 10° SSW 18:35:13 64° W 18:39:33 10° N
Cosmos 1603 3.9 18:33:26 10° NNW 18:38:57 51° ENE 18:44:23 10° SE
Cosmos 1184 Rocket 4.1 18:37:36 10° NNE 18:40:08 20° ENE 18:40:14 20° ENE
SJ-6B 3.1 18:40:33 10° SE 18:44:08 42° ENE 18:47:49 10° N
Cosmos 1891 Rocket 4.5 18:37:56 10° N 18:44:10 89° E 18:50:15 10° S
Cosmos 2034 Rocket 4.0 18:38:31 10° N 18:44:56 77° E 18:51:17 10° SSE
Envisat 3.3 18:44:05 10° SE 18:48:50 42° ENE 18:53:37 10° N
Meteor 1-13 Rocket 4.3 18:44:36 10° N 18:49:58 48° ENE 18:55:17 10° SSE
Cosmos 2263 Rocket 3.0 18:48:06 10° SSE 18:52:40 27° ESE 18:55:42 17° ENE
OE (NEXTSAT) 4.4 18:50:45 10° WSW 18:54:17 67° SSE 18:55:48 31° E
Cosmos 1634 Rocket 4.4 18:49:34 10° N 18:55:17 38° ENE 19:00:58 10° SE
Cosmos 1975 Rocket 3.0 18:51:59 10° N 18:56:27 79° E 19:00:55 10° S
CZ-2D R/B 3.4 18:53:15 10° SSE 18:57:01 51° ENE 19:00:49 10° N
Resurs 1-3 4.5 18:56:04 25° E 18:57:11 29° ENE 19:00:57 10° N
Cosmos 494 Rocket 4.2 18:52:21 10° S 18:57:18 46° ESE 19:02:15 10° NNE
ATLAS CENTAUR R/B 2.4 18:53:41 10° NNW 18:57:21 29° NE 18:58:21 26° ENE
HJ-1C 3.3 18:54:36 10° SSE 18:58:00 74° ENE 19:01:25 10° N
Okean 1 3.7 18:54:52 10° NNW 18:58:50 64° W 19:02:44 10° S
CENTAUR R/B 3.1 18:53:39 10° SW 18:59:39 60° NW 19:06:35 10° NNE
Cosmos 1110 Rocket 4.0 18:58:06 10° NNW 19:03:23 68° ENE 19:08:40 10° SSE
CRYOSAT 2 4.3 18:59:06 10° N 19:03:58 68° E 19:08:48 10° S
Cosmos 1602 3.6 19:00:44 10° S 19:04:37 89° E 19:08:32 10° N
USA 267 4.2 19:01:04 19° ENE 19:04:48 34° NNE 19:10:32 10° NW
Thor Agena Rocket 3.5 19:00:43 10° NNE 19:05:44 57° ESE 19:10:41 10° S
Cosmos 1269 Rocket 4.3 19:01:55 10° SSW 19:07:11 72° WNW 19:12:29 10° NNE
Meteor 1-4 Rocket 2.4 19:03:51 10° S 19:07:19 60° E 19:10:52 10° NNE
BREEZE-M R/B 3.7 19:07:21 10° WNW 19:10:00 72° SSW 19:14:37 20° SE
USA 32 4.4 19:04:53 10° SSW 19:10:04 67° W 19:15:18 10° N
Resurs 01 Rocket 1.9 19:15:19 39° ESE 19:16:09 44° ENE 19:20:23 10° N
OAO 2 Rocket 4.4 19:13:58 10° WSW 19:18:19 31° S 19:19:59 25° SSE
Meteor 2-4 Rocket 3.6 19:14:36 10° N 19:20:25 73° E 19:26:00 10° SSE
Cosmos 2227 4.3 19:15:16 10° SSW 19:21:00 79° WNW 19:26:44 10° NNE
Meteor 1-5 Rocket 4.4 19:17:53 10° S 19:23:35 54° E 19:29:24 10° NNE
YAOGAN 6 4.1 19:26:58 25° NNE 19:26:58 25° NNE 19:28:43 10° N
Cosmos 1536 Rocket 3.7 19:22:39 10° N 19:26:42 50° ENE 19:26:42 50° ENE
Alouette 2 Rocket 3.0 19:24:13 10° S 19:27:46 80° ESE 19:31:39 10° NNE
Cosmos 1437 Rocket 4.4 19:24:37 10° SW 19:28:25 37° WNW 19:32:16 10° N
CZ-4C R/B 3.0 19:21:34 10° NNW 19:28:34 59° NE 19:31:56 35° ESE
SL-8 R/B 4.3 19:25:57 10° W 19:30:34 47° N 19:31:56 36° NE
Cosmos 1536 4.4 19:27:19 10° S 19:34:42 14° NNE 19:35:22 10° NNE
SJ-11-01 4.5 19:32:30 49° ENE 19:32:30 49° ENE 19:36:55 10° N
Cosmos 1331 Rocket 4.1 19:28:03 10° NNW 19:33:22 76° WSW 19:37:34 16° SSE
H-2A R/B 4.2 19:37:59 14° NNE 19:37:59 14° NNE 19:39:04 10° NNE
Spot 2 Rocket 3.4 19:37:43 56° ESE 19:38:25 62° ENE 19:43:27 10° N
Meteor 1-11 Rocket 3.7 19:33:17 10° SSW 19:38:52 82° W 19:44:37 10° N
Geosat 4.4 19:40:31 44° SSE 19:40:31 44° SSE 19:44:24 10° S
Cosmos 1943 3.1 19:37:48 10° NNW 19:43:29 89° W 19:45:39 40° SSE
USA 186 3.4 19:46:06 31° NNW 19:46:06 31° NNW 19:48:01 10° NNW
Gbstr 26 Del rocket 3.1 19:44:24 10° WSW 19:47:48 59° NW 19:47:48 59° NW
Cosmos 2251 Rocket 3.4 19:49:06 10° SSW 19:54:19 89° ESE 19:56:08 43° NNE
Cosmos 1939 Rocket 3.6 20:01:06 51° NW 20:01:06 51° NW 20:04:24 10° NNW
Cosmos 1302 Rocket 4.1 19:59:38 10° NNW 20:04:50 71° WSW 20:05:18 66° SW
Cosmos 2151 Rocket 4.2 20:00:32 10° SSW 20:04:55 54° W 20:09:18 10° N
SeaSat 1 3.2 20:04:39 37° SSW 20:06:08 49° WSW 20:10:56 10° NW
USA 215 3.2 20:11:44 53° NE 20:13:29 84° NW 20:20:02 10° SW
COSMOS 2455 3.3 20:08:04 10° SW 20:13:59 59° NW 20:17:38 24° NNE
Cosmos 2279 Rocket 3.9 20:13:01 10° N 20:19:17 83° W 20:19:43 77° SSW
Cosmos 2263 Rocket 3.1 20:31:00 10° SW 20:36:19 45° WNW 20:37:36 39° NNW
ATLAS CENTAUR R/B 3.6 20:32:29 10° NW 20:34:39 25° WNW 20:34:39 25° WNW
USA 267 3.5 20:48:24 61° NNW 20:48:24 61° NNW 20:53:46 10° NW
Resurs 01 Rocket 4.1 20:52:52 18° W 20:52:52 18° W 20:55:53 10° NW
CZ-4C R/B 4.0 21:10:26 10° NW 21:17:04 37° WSW 21:17:10 37° WSW
